TimePST,TemperatureF,Dew PointF,Humidity,Sea Level PressureIn,VisibilityMPH,Wind Direction,Wind SpeedMPH,Gust SpeedMPH,PrecipitationIn,Events,Conditions,WindDirDegrees,DateUTC
12:53 AM,46.9,43.0,86,30.02,10.0,SW,6.9,-,0.00,,Mostly Cloudy,230,2012-12-05 08:53:00
1:53 AM,46.9,42.1,83,30.05,10.0,SSW,8.1,-,N/A,,Partly Cloudy,210,2012-12-05 09:53:00
2:53 AM,45.0,41.0,86,30.09,10.0,South,5.8,-,N/A,,Clear,190,2012-12-05 10:53:00
3:53 AM,43.0,41.0,93,30.11,10.0,WSW,4.6,-,N/A,,Clear,240,2012-12-05 11:53:00
4:53 AM,43.0,39.9,89,30.14,10.0,Calm,Calm,-,N/A,,Scattered Clouds,0,2012-12-05 12:53:00
6:53 AM,39.0,37.9,96,30.18,10.0,South,3.5,-,N/A,,Partly Cloudy,180,2012-12-05 14:53:00
7:53 AM,37.0,37.0,100,30.19,1.0,Calm,Calm,-,N/A,,Mostly Cloudy,0,2012-12-05 15:53:00
8:08 AM,37.4,37.4,100,30.20,10.0,North,3.5,-,N/A,,Partly Cloudy,350,2012-12-05 16:08:00
8:53 AM,39.0,37.9,96,30.21,6.0,Calm,Calm,-,N/A,,Clear,0,2012-12-05 16:53:00
9:53 AM,45.0,42.1,90,30.23,10.0,South,3.5,-,N/A,,Clear,170,2012-12-05 17:53:00
10:53 AM,48.0,42.1,80,30.24,10.0,SSW,4.6,-,N/A,,Clear,200,2012-12-05 18:53:00
11:53 AM,50.0,39.0,66,30.24,10.0,SW,5.8,-,N/A,,Clear,220,2012-12-05 19:53:00
12:53 PM,50.0,37.9,63,30.24,10.0,SSW,4.6,-,N/A,,Partly Cloudy,210,2012-12-05 20:53:00
1:53 PM,50.0,37.0,61,30.22,10.0,SSW,5.8,-,N/A,,Scattered Clouds,200,2012-12-05 21:53:00
2:53 PM,50.0,36.0,59,30.22,10.0,South,6.9,-,N/A,,Scattered Clouds,190,2012-12-05 22:53:00
3:53 PM,48.0,37.0,66,30.22,10.0,SSW,3.5,-,N/A,,Mostly Cloudy,200,2012-12-05 23:53:00
4:53 PM,46.0,37.0,71,30.23,10.0,Calm,Calm,-,N/A,,Clear,0,2012-12-06 00:53:00
5:53 PM,44.1,37.9,79,30.24,10.0,Calm,Calm,-,N/A,,Mostly Cloudy,0,2012-12-06 01:53:00
6:53 PM,43.0,39.0,86,30.25,10.0,Calm,Calm,-,N/A,,Overcast,0,2012-12-06 02:53:00
7:53 PM,43.0,39.0,86,30.25,10.0,Calm,Calm,-,N/A,,Scattered Clouds,0,2012-12-06 03:53:00
8:53 PM,41.0,39.0,93,30.26,10.0,Calm,Calm,-,N/A,,Partly Cloudy,0,2012-12-06 04:53:00
9:53 PM,39.0,37.9,96,30.26,10.0,Calm,Calm,-,N/A,,Mostly Cloudy,0,2012-12-06 05:53:00
10:53 PM,37.9,37.0,97,30.26,9.0,Calm,Calm,-,N/A,,Clear,0,2012-12-06 06:53:00
11:53 PM,37.9,37.0,97,30.25,6.0,Calm,Calm,-,N/A,,Clear,0,2012-12-06 07:53:00